Tombarra — MPRD6 — position and weather

sailwx.info

Track history (hours):
 
Tides and Currents Weather Stations Pressure Air Temp Water Temp Dewpoint Dewpoint Depression Visibility Wind Speed Wind Dir Waves Ship Positions

Tombarra

Last reported at 2014-Jul-25 03:33 UTC. Time now 2014-Jul-25 03:44 UTC.
Position N 37°37' E 010°37'.

Length 199 m; draft 10.3 m.

Type: Ship. MMSI: 232971000.

Date/timePositionNaut miles runAvg speedWind from/ knotsBaromVisibWave heightAir tempDewpointWater temp
2014-Jul-25 03:33N 37°37' E 010°37'1918.7
2014-Jul-25 02:33N 37°31' E 010°59'8418.7
2014-Jul-24 22:04N 36°56' E 012°35'918.5
2014-Jul-24 21:34N 36°53' E 012°47'1918.8
2014-Jul-24 20:34N 36°49' E 013°10'1918.8
2014-Jul-24 19:34N 36°44' E 013°32'1919.0
2014-Jul-24 18:34N 36°38' E 013°55'1918.8
2014-Jul-24 17:33N 36°32' E 014°17'1918.7
2014-Jul-24 16:33N 36°25' E 014°39'1918.5
2014-Jul-24 15:33N 36°20' E 015°01'57618.5
2014-Jul-23 08:26N 33°24' E 026°10'7918.1
2014-Jul-23 04:04N 32°60' E 027°40'3018.7
2014-Jul-23 02:28N 32°51' E 028°14'2019.0
2014-Jul-23 01:25N 32°45' E 028°36'1719.2
2014-Jul-23 00:33N 32°40' E 028°55'2019.4
2014-Jul-22 23:33N 32°33' E 029°17'1918.9
2014-Jul-22 22:33N 32°27' E 029°38'1918.6
2014-Jul-22 21:32N 32°21' E 029°59'1818.3
2014-Jul-22 20:33N 32°16' E 030°20'1918.1
2014-Jul-22 19:32N 32°10' E 030°41'1818.2
2014-Jul-22 18:33N 32°05' E 031°01'1818.2
2014-Jul-22 17:34N 31°59' E 031°21'1818.1
2014-Jul-22 16:34N 31°52' E 031°41'1817.7
2014-Jul-22 15:34N 31°45' E 031°60'1817.7
2014-Jul-22 14:34N 31°32' E 032°14'1414.0
2014-Jul-22 13:33N 31°20' E 032°23'1010.3
2014-Jul-22 12:33N 31°10' E 032°20'  
Track history (hours):
 
Tides and Currents Weather Stations Pressure Air Temp Water Temp Dewpoint Dewpoint Depression Visibility Wind Speed Wind Dir Waves Ship Positions

Tombarra

Last reported at 2014-Jul-25 03:33 UTC. Time now 2014-Jul-25 03:44 UTC.
Position N 37°37' E 010°37'.

Length 199 m; draft 10.3 m.

Type: Ship. MMSI: 232971000.

Date/timePositionNaut miles runAvg speedWind from/ knotsBaromVisibWave heightAir tempDewpointWater temp
2014-Jul-25 03:33N 37°37' E 010°37'1918.7
2014-Jul-25 02:33N 37°31' E 010°59'8418.7
2014-Jul-24 22:04N 36°56' E 012°35'918.5
2014-Jul-24 21:34N 36°53' E 012°47'1918.8
2014-Jul-24 20:34N 36°49' E 013°10'1918.8
2014-Jul-24 19:34N 36°44' E 013°32'1919.0
2014-Jul-24 18:34N 36°38' E 013°55'1918.8
2014-Jul-24 17:33N 36°32' E 014°17'1918.7
2014-Jul-24 16:33N 36°25' E 014°39'1918.5
2014-Jul-24 15:33N 36°20' E 015°01'57618.5
2014-Jul-23 08:26N 33°24' E 026°10'7918.1
2014-Jul-23 04:04N 32°60' E 027°40'3018.7
2014-Jul-23 02:28N 32°51' E 028°14'2019.0
2014-Jul-23 01:25N 32°45' E 028°36'1719.2
2014-Jul-23 00:33N 32°40' E 028°55'2019.4
2014-Jul-22 23:33N 32°33' E 029°17'1918.9
2014-Jul-22 22:33N 32°27' E 029°38'1918.6
2014-Jul-22 21:32N 32°21' E 029°59'1818.3
2014-Jul-22 20:33N 32°16' E 030°20'1918.1
2014-Jul-22 19:32N 32°10' E 030°41'1818.2
2014-Jul-22 18:33N 32°05' E 031°01'1818.2
2014-Jul-22 17:34N 31°59' E 031°21'1818.1
2014-Jul-22 16:34N 31°52' E 031°41'1817.7
2014-Jul-22 15:34N 31°45' E 031°60'1817.7
2014-Jul-22 14:34N 31°32' E 032°14'1414.0
2014-Jul-22 13:33N 31°20' E 032°23'1010.3
2014-Jul-22 12:33N 31°10' E 032°20'  

Dump ship's entire track history